| time (UTC) | temp C | wind direction | speed KPH | gust KPH | rain 1hr cm | rain 24hr cm | rain mn cm | humidity % | barometer mb |
| 20260509000124 | 31 | 0.0 | 0.0 | 0.00 | 0.00 | 0.00 | 36 | 1010.6 | |
| 20260508234549 | 31 | 0.0 | 0.0 | 0.00 | 0.00 | 0.00 | 36 | 1010.1 | |
| 20260508233014 | 32 | 0.0 | 0.0 | 0.00 | 0.00 | 0.00 | 36 | 1010.0 | |
| 20260508231439 | 32 | 0.0 | 0.0 | 0.00 | 0.00 | 0.00 | 36 | 1009.8 | |
| 20260508225904 | 31 | 0.0 | 0.0 | 0.00 | 0.00 | 0.00 | 36 | 1009.7 | |
| 20260508224329 | 31 | 0.0 | 0.0 | 0.00 | 0.00 | 0.00 | 37 | 1009.6 | |
| 20260508222754 | 32 | 0.0 | 0.0 | 0.00 | 0.00 | 0.00 | 36 | 1009.7 | |
| 20260508221219 | 32 | 0.0 | 0.0 | 0.00 | 0.00 | 0.00 | 36 | 1009.3 | |
| 20260508215644 | 32 | 0.0 | 0.0 | 0.00 | 0.00 | 0.00 | 36 | 1009.1 | |
| 20260508214109 | 32 | 0.0 | 0.0 | 0.00 | 0.00 | 0.00 | 36 | 1009.2 | |
| 20260508212534 | 31 | 0.0 | 0.0 | 0.00 | 0.00 | 0.00 | 36 | 1009.5 | |
| 20260508210959 | 31 | 0.0 | 0.0 | 0.00 | 0.00 | 0.00 | 36 | 1009.6 | |
| 20260508205423 | 31 | 0.0 | 0.0 | 0.00 | 0.00 | 0.00 | 36 | 1009.6 | |
| 20260508203848 | 32 | 0.0 | 0.0 | 0.00 | 0.00 | 0.00 | 36 | 1010.1 | |
| 20260508202313 | 32 | 0.0 | 0.0 | 0.00 | 0.00 | 0.00 | 36 | 1009.9 | |
| 20260508200738 | 32 | 0.0 | 0.0 | 0.00 | 0.00 | 0.00 | 36 | 1010.1 | |
| 20260508195203 | 32 | 0.0 | 0.0 | 0.00 | 0.00 | 0.00 | 36 | 1010.4 | |
| 20260508193628 | 31 | 0.0 | 0.0 | 0.00 | 0.00 | 0.00 | 36 | 1010.6 | |
| 20260508192053 | 32 | 0.0 | 0.0 | 0.00 | 0.00 | 0.00 | 36 | 1009.9 | |
| 20260508190518 | 32 | 0.0 | 0.0 | 0.00 | 0.00 | 0.00 | 35 | 1010.5 | |
| 20260508184943 | 32 | 0.0 | 0.0 | 0.00 | 0.00 | 0.00 | 35 | 1010.7 | |
| 20260508183408 | 32 | 0.0 | 0.0 | 0.00 | 0.00 | 0.00 | 35 | 1010.6 | |
| 20260508181833 | 32 | 0.0 | 0.0 | 0.00 | 0.00 | 0.00 | 36 | 1010.3 | |
| 20260508180258 | 33 | 0.0 | 0.0 | 0.00 | 0.00 | 0.00 | 35 | 1010.5 | |
| 20260508174723 | 33 | 0.0 | 0.0 | 0.00 | 0.00 | 0.00 | 35 | 1010.5 | |
| 20260508173148 | 33 | 0.0 | 0.0 | 0.00 | 0.00 | 0.00 | 34 | 1010.7 | |
| 20260508171613 | 33 | 0.0 | 0.0 | 0.00 | 0.00 | 0.00 | 34 | 1010.6 | |
| 20260508170038 | 33 | 0.0 | 0.0 | 0.00 | 0.00 | 0.00 | 34 | 1010.7 | |
| 20260508164503 | 33 | 0.0 | 0.0 | 0.00 | 0.00 | 0.00 | 35 | 1011.0 | |
| 20260508162928 | 32 | 0.0 | 0.0 | 0.00 | 0.00 | 0.00 | 35 | 1010.9 | |
| 20260508161353 | 32 | 0.0 | 0.0 | 0.00 | 0.00 | 0.00 | 36 | 1010.9 | |
| 20260508155818 | 33 | 0.0 | 0.0 | 0.00 | 0.00 | 0.00 | 35 | 1011.1 | |
| 20260508154227 | 32 | 0.0 | 0.0 | 0.00 | 0.00 | 0.00 | 35 | 1010.8 | |
| 20260508152657 | 33 | 0.0 | 0.0 | 0.00 | 0.00 | 0.00 | 34 | 1010.6 | |
| 20260508151101 | 33 | 0.0 | 0.0 | 0.00 | 0.00 | 0.00 | 34 | 1010.4 | |
| 20260508145526 | 33 | 0.0 | 0.0 | 0.00 | 0.00 | 0.00 | 34 | 1010.6 | |
| 20260508143951 | 33 | 0.0 | 0.0 | 0.00 | 0.00 | 0.00 | 34 | 1011.4 | |
| 20260508142416 | 33 | 0.0 | 0.0 | 0.00 | 0.00 | 0.00 | 34 | 1011.1 | |
| 20260508140842 | 33 | 0.0 | 0.0 | 0.00 | 0.00 | 0.00 | 34 | 1010.9 | |
| 20260508135306 | 33 | 0.0 | 0.0 | 0.00 | 0.00 | 0.00 | 35 | 1010.3 | |
| 20260508133731 | 32 | 0.0 | 0.0 | 0.00 | 0.00 | 0.00 | 36 | 1010.5 | |
| 20260508132201 | 32 | 0.0 | 0.0 | 0.00 | 0.00 | 0.00 | 36 | 1010.6 | |
| 20260508130605 | 32 | 0.0 | 0.0 | 0.00 | 0.00 | 0.00 | 35 | 1009.8 | |
| 20260508125029 | 32 | 0.0 | 0.0 | 0.00 | 0.00 | 0.00 | 35 | 1009.6 | |
| 20260508123454 | 32 | 0.0 | 0.0 | 0.00 | 0.00 | 0.00 | 34 | 1009.7 | |
| 20260508121919 | 32 | 0.0 | 0.0 | 0.00 | 0.00 | 0.00 | 35 | 1009.2 | |
| 20260508120344 | 34 | 0.0 | 0.0 | 0.00 | 0.00 | 0.00 | 32 | 1008.8 | |
| 20260508114753 | 33 | 0.0 | 0.0 | 0.00 | 0.00 | 0.00 | 33 | 1008.2 | |
| 20260508113218 | 31 | 0.0 | 0.0 | 0.00 | 0.00 | 0.00 | 36 | 1008.0 | |
| 20260508111643 | 31 | 0.0 | 0.0 | 0.00 | 0.00 | 0.00 | 37 | 1007.7 | |
| 20260508110108 | 31 | 0.0 | 0.0 | 0.00 | 0.00 | 0.00 | 38 | 1007.7 | |
| 20260508104533 | 31 | 0.0 | 0.0 | 0.00 | 0.00 | 0.00 | 36 | 1007.7 | |
| 20260508102942 | 31 | 0.0 | 0.0 | 0.00 | 0.00 | 0.00 | 37 | 1007.4 | |
| 20260508101407 | 31 | 0.0 | 0.0 | 0.00 | 0.00 | 0.00 | 37 | 1007.3 | |
| 20260508095832 | 31 | 0.0 | 0.0 | 0.00 | 0.00 | 0.00 | 37 | 1007.2 | |
| 20260508094257 | 31 | 0.0 | 0.0 | 0.00 | 0.00 | 0.00 | 36 | 1007.0 | |
| 20260508092722 | 31 | 0.0 | 0.0 | 0.00 | 0.00 | 0.00 | 35 | 1006.9 | |
| 20260508091147 | 31 | 0.0 | 0.0 | 0.00 | 0.00 | 0.00 | 37 | 1007.1 | |
| 20260508085612 | 30 | 0.0 | 0.0 | 0.00 | 0.00 | 0.00 | 37 | 1006.2 | |
| 20260508084037 | 31 | 0.0 | 0.0 | 0.00 | 0.00 | 0.00 | 35 | 1005.7 | |
| 20260508082502 | 30 | 0.0 | 0.0 | 0.00 | 0.00 | 0.00 | 36 | 1005.9 | |
| 20260508080927 | 30 | 0.0 | 0.0 | 0.00 | 0.00 | 0.00 | 37 | 1006.0 | |
| 20260508075336 | 31 | 0.0 | 0.0 | 0.00 | 0.00 | 0.00 | 36 | 1006.3 | |
| 20260508073801 | 30 | 0.0 | 0.0 | 0.00 | 0.00 | 0.00 | 37 | 1006.5 | |
| 20260508072225 | 31 | 0.0 | 0.0 | 0.00 | 0.00 | 0.00 | 37 | 1006.3 | |
| 20260508070634 | 31 | 0.0 | 0.0 | 0.00 | 0.00 | 0.00 | 36 | 1006.9 | |
| 20260508065059 | 32 | 0.0 | 0.0 | 0.00 | 0.00 | 0.00 | 34 | 1008.1 | |
| 20260508063524 | 33 | 0.0 | 0.0 | 0.00 | 0.00 | 0.00 | 33 | 1007.5 | |
| 20260508061949 | 32 | 0.0 | 0.0 | 0.00 | 0.00 | 0.00 | 34 | 1008.3 | |
| 20260508060414 | 32 | 0.0 | 0.0 | 0.00 | 0.00 | 0.00 | 34 | 1008.3 | |
| 20260508054839 | 32 | 0.0 | 0.0 | 0.00 | 0.00 | 0.00 | 34 | 1007.9 | |
| 20260508053304 | 32 | 0.0 | 0.0 | 0.00 | 0.00 | 0.00 | 31 | 1007.8 | |
| 20260508051729 | 32 | 0.0 | 0.0 | 0.00 | 0.00 | 0.00 | 31 | 1008.1 | |
| 20260508050106 | 33 | 0.0 | 0.0 | 0.00 | 0.00 | 0.00 | 31 | 1008.4 | |
| 20260508044531 | 32 | 0.0 | 0.0 | 0.00 | 0.00 | 0.00 | 32 | 1008.3 | |
| 20260508042956 | 33 | 0.0 | 0.0 | 0.00 | 0.00 | 0.00 | 31 | 1008.9 | |
| 20260508041421 | 32 | 0.0 | 0.0 | 0.00 | 0.00 | 0.00 | 33 | 1009.8 | |
| 20260508035846 | 31 | 0.0 | 0.0 | 0.00 | 0.00 | 0.00 | 35 | 1009.7 | |
| 20260508034311 | 32 | 0.0 | 0.0 | 0.00 | 0.00 | 0.00 | 35 | 1009.5 | |
| 20260508032736 | 32 | 0.0 | 0.0 | 0.00 | 0.00 | 0.00 | 35 | 1010.0 | |
| 20260508031201 | 32 | 0.0 | 0.0 | 0.00 | 0.00 | 0.00 | 35 | 1010.4 | |
| 20260508025626 | 32 | 0.0 | 0.0 | 0.00 | 0.00 | 0.00 | 35 | 1010.4 | |
| 20260508024035 | 32 | 0.0 | 0.0 | 0.00 | 0.00 | 0.00 | 35 | 1010.4 | |
| 20260508022500 | 32 | 0.0 | 0.0 | 0.00 | 0.00 | 0.00 | 35 | 1010.5 | |
| 20260508020924 | 32 | 0.0 | 0.0 | 0.00 | 0.00 | 0.00 | 35 | 1010.3 | |
| 20260508015349 | 32 | 0.0 | 0.0 | 0.00 | 0.00 | 0.00 | 35 | 1010.4 | |
| 20260508013814 | 32 | 0.0 | 0.0 | 0.00 | 0.00 | 0.00 | 36 | 1010.3 | |
| 20260508012239 | 32 | 0.0 | 0.0 | 0.00 | 0.00 | 0.00 | 35 | 1010.3 | |
| 20260508010704 | 32 | 0.0 | 0.0 | 0.00 | 0.00 | 0.00 | 35 | 1009.5 | |
| 20260508005129 | 32 | 0.0 | 0.0 | 0.00 | 0.00 | 0.00 | 35 | 1009.6 | |
| 20260508003554 | 32 | 0.0 | 0.0 | 0.00 | 0.00 | 0.00 | 36 | 1009.7 | |
| 20260508002020 | 32 | 0.0 | 0.0 | 0.00 | 0.00 | 0.00 | 35 | 1009.6 |